Station MTBF1 - 8726412 - Middle Tampa Bay, FL Image indicating link to RSS feed of recent meteorological observations for station MTBF1


Conditions at MTBF1 as of
(11:00 am EDT)
1500 GMT on 04/20/2024:
     

Click on the graph icon in the table below to see a time series plot of the last five days of that observation.

5-day plot - Wind Direction Wind Direction (WDIR):NNE ( 30 deg true )
5-day plot - Wind Speed Wind Speed (WSPD): 4.1 kts
5-day plot - Wind Gust Wind Gust (GST): 5.1 kts
5-day plot - Atmospheric Pressure Atmospheric Pressure (PRES):30.11 in
5-day plot - Pressure Tendency Pressure Tendency (PTDY):+0.04 in ( Rising )
5-day plot - Air Temperature Air Temperature (ATMP): 73.8 °F
5-day plot - Dew Point Dew Point (DEWP): 69.3 °F
5-day plot - Visibility Visibility (VIS): 5.9 nmi
5-day plot - Wind Speed at 10 Meters Wind Speed at 10 meters (WSPD10M): 3.9 kts
5-day plot - Wind Speed at 20 Meters Wind Speed at 20 meters (WSPD20M): 5.8 kts
5-day plot -  Wind Speed, Wind Gust and Atmospheric Pressure Combined plot of Wind Speed, Gust, and Air Pressure
NOS Water Level Observation Network Water Level
Previous observations
TIME
(EDT)
5-day plot - Wind Direction
WDIR
 
5-day plot - Wind Speed
WSPD
kts
5-day plot - Wind Gust
GST
kts
5-day plot - Wave Height
WVHT
ft
5-day plot - Dominant Wave Period
DPD
sec
5-day plot - Average Wave Period
APD
sec
5-day plot - Mean Wave Direction
MWD
 
5-day plot - Atmospheric Pressure
PRES
in
5-day plot - Pressure Tendency
PTDY
in
5-day plot - Air Temperature
ATMP
°F
5-day plot - Water Temperature
WTMP
°F
5-day plot - Dew Point
DEWP
°F
5-day plot - Salinity
SAL
psu
5-day plot - Visibility
VIS
nmi
5-day plot - Tide (above MLLW)
TIDE
ft
2024-04-20 10:54 amNNE 5.1 5.1----30.11- 73.4- 68.9- 5.9-
2024-04-20 10:48 amNNE 5.1 6.0----30.11- 73.4- 68.9- 5.9-
2024-04-20 10:42 amNNE 5.1 6.0----30.11- 73.4- 68.9- 5.9-
2024-04-20 10:36 amNNE 5.1 6.0----30.11- 73.4- 68.9- 5.9-
2024-04-20 10:30 amNNE 4.1 5.1----30.11- 73.4- 68.9- 5.9-
2024-04-20 10:24 amNNE 2.9 4.1----30.11- 73.4- 69.1- 5.9-
2024-04-20 10:18 amNNE 2.9 4.1----30.11- 73.4- 69.1- 5.9-
2024-04-20 10:12 amNNE 2.9 4.1----30.11- 73.0- 68.9- 5.9-
2024-04-20 10:06 am NE 2.9 4.1----30.10- 72.9- 68.7- 5.9-
2024-04-20 10:00 am E 2.9 5.1----30.10+0.04 72.7- 68.7- 5.9-
2024-04-20 09:54 amENE 4.1 5.1----30.10- 72.7- 68.7- 5.9-
2024-04-20 09:48 am E 5.1 6.0----30.10----- 5.9-
2024-04-20 09:42 am E 5.1 6.0----30.10----- 5.9-
2024-04-20 09:36 amENE 5.1 5.1----30.10----- 5.9-
2024-04-20 09:30 am E 4.1 5.1----30.09- 72.1- 68.7- 5.9-
2024-04-20 09:24 am E 5.1 6.0----30.09- 72.1- 68.9- 5.9-
2024-04-20 09:18 am E 5.1 5.1----30.09- 72.0- 68.7- 5.9-
2024-04-20 09:12 am E 5.1 6.0----30.09- 72.0- 68.7- 5.9-
2024-04-20 09:06 am E 5.1 6.0----30.09- 72.0- 68.9- 5.9-
2024-04-20 09:00 am E 5.1 6.0----30.09+0.05 72.0- 68.9- 5.9-
2024-04-20 08:54 am E 5.1 7.0----30.08- 71.6- 68.5- 5.9-
2024-04-20 08:48 am E 6.0 7.0----30.08- 71.8- 68.7- 5.9-
2024-04-20 08:42 amESE 6.0 7.0----30.08- 72.0- 68.9- 5.9-
2024-04-20 08:36 amESE 6.0 7.0----30.08- 71.8- 68.7- 5.9-
2024-04-20 08:30 amESE 7.0 7.0----30.07- 71.8- 68.7- 5.9-
2024-04-20 08:24 amESE 7.0 8.0----30.08- 72.0- 69.1- 5.9-
2024-04-20 08:18 amESE 7.0 8.0----30.07- 72.0- 69.3- 5.9-
2024-04-20 08:12 amESE 7.0 8.0----30.07- 71.8- 69.1- 5.9-
2024-04-20 08:06 amESE 7.0 8.0----30.07- 71.4- 68.9- 5.9-
2024-04-20 08:00 amESE 8.0 8.0----30.07+0.04 71.4- 69.1- 5.9-
2024-04-20 07:54 am SE 8.0 8.0----30.07- 71.2- 68.9- 5.9-
2024-04-20 07:48 am SE 7.0 7.0----30.07- 71.1- 68.9- 5.9-
2024-04-20 07:42 am SE 7.0 7.0----30.07- 70.9- 68.7- 5.9-
2024-04-20 07:36 am SE 7.0 8.0----30.07- 70.9- 68.9- 5.9-
2024-04-20 07:30 amESE 6.0 7.0----30.07- 70.5- 68.5- 5.9-
2024-04-20 07:24 am SE 6.0 7.0----30.07- 70.3- 68.4- 5.9-
2024-04-20 07:18 amESE 6.0 6.0----30.06- 70.3- 68.4- 5.9-
2024-04-20 07:12 amESE 5.1 6.0----30.06- 70.3- 68.4- 5.9-
2024-04-20 07:06 amESE 5.1 6.0----30.06- 70.2- 68.2- 5.9-
2024-04-20 07:00 amESE 5.1 5.1----30.06+0.03 70.3- 68.4- 5.9-
2024-04-20 06:54 amESE 4.1 5.1----30.06- 70.3- 68.2- 5.9-
2024-04-20 06:48 am SE 4.1 5.1----30.06- 70.5- 68.4- 5.9-
2024-04-20 06:42 am SE 4.1 5.1----30.05- 70.5- 68.4- 5.9-
2024-04-20 06:36 am SE 4.1 5.1----30.05- 70.5- 68.4- 5.9-
2024-04-20 06:30 amESE 5.1 6.0----30.04----- 5.9-
2024-04-20 06:24 am SE 5.1 6.0----30.04----- 5.9-
2024-04-20 06:18 amESE 5.1 6.0----30.04- 71.1- 68.7- 5.9-
2024-04-20 06:12 amESE 5.1 6.0----30.04- 71.2- 68.9- 5.9-
2024-04-20 06:06 amESE 5.1 5.1----30.03- 71.6- 69.3- 5.9-
2024-04-20 06:00 am E 5.1 5.1----30.03+0.00---- 5.9-
2024-04-20 05:54 am E 4.1 5.1----30.03----- 5.9-
2024-04-20 05:48 am E 4.1 5.1----30.03- 72.0- 69.4- 5.9-
2024-04-20 05:42 am E 4.1 5.1----30.03- 72.0- 69.3- 5.9-
2024-04-20 05:36 am E 4.1 5.1----30.03- 72.0- 69.3- 5.9-
2024-04-20 05:30 am E 5.1 5.1----30.03- 71.8- 69.1- 5.9-
2024-04-20 05:24 am E 5.1 6.0----30.02- 71.8- 69.1- 5.9-
2024-04-20 05:18 am E 5.1 6.0----30.03- 71.8- 69.1- 5.9-
2024-04-20 05:12 am E 5.1 5.1----30.03- 71.8- 68.9- 5.9-
2024-04-20 05:06 amESE 5.1 5.1----30.03- 72.0- 69.1- 5.9-
2024-04-20 05:00 amESE 4.1 4.1----30.03-0.02 72.0- 68.9- 5.9-
2024-04-20 04:54 amESE 4.1 4.1----30.03- 72.1- 68.9- 5.9-
2024-04-20 04:48 amESE 4.1 4.1----30.03- 72.1- 68.7- 5.9-
2024-04-20 04:42 amESE 4.1 5.1----30.03- 72.3- 68.7- 5.9-
2024-04-20 04:36 amESE 5.1 5.1----30.03- 72.5- 68.4- 5.9-
2024-04-20 04:30 amESE 5.1 5.1----30.03----- 5.9-
2024-04-20 04:24 amESE 5.1 5.1----30.03----- 5.9-
2024-04-20 04:18 am NE 5.1 5.1----30.03- 73.2- 68.4- 5.9-
2024-04-20 04:12 am NE 4.1 5.1----30.03- 73.2- 68.4- 5.9-
2024-04-20 04:06 am NE 2.9 5.1----30.03- 73.2- 68.4- 5.9-
2024-04-20 04:00 am-------30.03-0.04---- 5.9-
2024-04-20 03:54 am-------30.03----- 5.9-
2024-04-20 03:48 amNNE 5.1 5.1----30.03- 73.2- 68.2- 5.9-
2024-04-20 03:42 amNNE 5.1 5.1----30.03- 73.0- 68.0- 5.9-
2024-04-20 03:36 amNNE 4.1 5.1----30.03- 73.0- 68.0- 5.9-
2024-04-20 03:30 am N 4.1 5.1----30.03- 73.0- 68.0- 5.9-
2024-04-20 03:24 am N 5.1 5.1----30.03- 73.2- 68.2- 5.9-
2024-04-20 03:18 am N 5.1 6.0----30.03- 73.0- 68.0- 5.9-
2024-04-20 03:12 am N 5.1 7.0----30.03- 72.9- 67.8- 5.9-
2024-04-20 03:06 am N 6.0 7.0----30.03- 73.2- 68.2- 5.9-
2024-04-20 03:00 am N 6.0 7.0----30.04-0.03 73.2- 68.2- 5.9-
2024-04-20 02:54 am N 6.0 7.0----30.04- 73.0- 67.8- 5.9-
2024-04-20 02:48 am N 6.0 8.0----30.04- 73.2- 68.0- 5.9-
2024-04-20 02:42 am N 7.0 8.0----30.04- 73.2- 68.0- 5.9-
2024-04-20 02:36 am N 7.0 8.0----30.04- 73.2- 67.8- 5.9-
2024-04-20 02:30 am N 6.0 7.0----30.04- 73.2- 67.8- 5.9-
2024-04-20 02:24 am N 6.0 6.0----30.04- 73.4- 68.0- 5.9-
2024-04-20 02:18 am N 5.1 6.0----30.04- 73.2- 67.8- 5.9-
2024-04-20 02:12 am N 4.1 4.1----30.05- 73.2- 67.6- 5.9-
2024-04-20 02:06 am N 2.9 4.1----30.05- 73.2- 67.6- 5.9-
2024-04-20 02:00 amNNW 2.9 5.1----30.05-0.02 73.2- 67.6- 5.9-
2024-04-20 01:54 amNNW 4.1 5.1----30.05- 73.2- 67.6- 5.9-
2024-04-20 01:48 am N 2.9 5.1----30.06- 73.2- 67.6- 5.9-
2024-04-20 01:42 am N 4.1 5.1----30.06- 73.2- 67.6- 5.9-
2024-04-20 01:36 am N 5.1 6.0----30.06- 73.2- 67.6- 5.9-
2024-04-20 01:30 am N 4.1 5.1----30.06- 73.4- 67.8- 5.9-
2024-04-20 01:24 am N 4.1 6.0----30.06- 73.2- 67.6- 5.9-
2024-04-20 01:18 amNNW 5.1 6.0----30.06- 73.4- 67.6- 5.9-
2024-04-20 01:12 amNNW 5.1 7.0----30.06- 73.4- 67.6- 5.9-
2024-04-20 01:06 amNNW 5.1 7.0----30.06- 73.4- 67.6- 5.9-
2024-04-20 01:00 amNNW 6.0 7.0----30.06+0.00 73.6- 67.8- 5.9-
2024-04-20 12:54 amNNW 5.1 7.0----30.06- 73.8- 67.8- 5.9-
2024-04-20 12:48 amNNW 6.0 7.0----30.06- 73.9- 68.0- 5.9-
2024-04-20 12:42 amNNW 6.0 8.0----30.07- 73.6- 67.6- 5.9-
2024-04-20 12:36 amNNW 7.0 8.0----30.06- 73.8- 67.8- 5.9-
2024-04-20 12:30 am N 7.0 8.0----30.07- 73.8- 67.8- 5.9-
2024-04-20 12:24 amNNW 7.0 8.0----30.07- 73.8- 67.8- 5.9-
2024-04-20 12:18 amNNW 6.0 8.0----30.07- 73.6- 67.6- 5.9-
2024-04-20 12:12 amNNW 7.0 8.0----30.07- 73.8- 68.0- 5.9-
2024-04-20 12:06 amNNW 6.0 8.9----30.07- 73.6- 67.8- 5.9-
2024-04-20 12:00 amNNW 8.0 8.9----30.07+0.01 73.8- 68.0- 5.9-
2024-04-19 11:54 pmNNW 8.0 8.9----30.07- 73.9- 68.2- 5.9-
2024-04-19 11:48 pmNNW 8.0 8.9----30.07- 73.9- 68.2- 5.9-
2024-04-19 11:42 pmNNW 8.0 8.9----30.07- 74.1- 68.4- 5.9-
2024-04-19 11:36 pmNNW 8.0 8.9----30.07- 74.1- 68.2- 5.9-
2024-04-19 11:30 pmNNW 8.0 8.0----30.07- 74.3- 68.4- 5.9-
2024-04-19 11:24 pmNNW 8.0 8.9----30.07- 74.3- 68.2- 5.9-
2024-04-19 11:18 pmNNW 7.0 8.0----30.07- 74.3- 68.0- 5.9-
2024-04-19 11:12 pmNNW 7.0 8.0----30.07- 74.3- 68.0- 5.9-
2024-04-19 11:06 pmNNW 6.0 7.0----30.07- 74.3- 67.8- 5.9-
2024-04-19 11:00 pmNNW 7.0 7.0----30.07+0.03 74.5- 67.8- 5.9-
2024-04-19 10:54 pmNNW 6.0 7.0----30.07- 74.5- 67.6- 5.9-
2024-04-19 10:48 pmNNW 5.1 6.0----30.07- 74.5- 67.6- 5.9-
2024-04-19 10:42 pmNNW 6.0 7.0----30.07- 74.7- 67.6- 5.9-
2024-04-19 10:36 pmNNW 6.0 6.0----30.07- 74.7- 67.6- 5.9-
2024-04-19 10:30 pmNNW 5.1 6.0----30.07- 74.8- 67.6- 5.9-
2024-04-19 10:24 pmNNW 4.1 6.0----30.07- 74.7- 67.3- 5.9-
2024-04-19 10:18 pmNNW 5.1 6.0----30.07- 75.0- 67.6- 5.9-
2024-04-19 10:12 pmNNW 5.1 8.0----30.07- 74.8- 67.3- 5.9-
2024-04-19 10:06 pmNNW 6.0 8.0----30.06- 74.8- 67.5- 5.9-
2024-04-19 10:00 pmNNW 7.0 8.0----30.06+0.04 74.8- 67.6- 5.9-
2024-04-19 09:54 pm NW 6.0 7.0----30.06- 75.2- 67.8- 5.9-
2024-04-19 09:48 pm NW 7.0 8.0----30.06- 75.0- 67.5- 5.9-
2024-04-19 09:42 pm NW 7.0 8.9----30.06- 75.0- 67.6- 5.9-
2024-04-19 09:36 pm NW 8.0 8.9----30.06- 75.0- 67.6- 5.9-
2024-04-19 09:30 pm NW 8.9 9.9----30.06- 75.2- 67.8- 5.9-
2024-04-19 09:24 pm NW 8.0 8.9----30.06- 75.0- 67.5- 5.9-
2024-04-19 09:18 pm NW 8.9 9.9----30.06- 75.0- 67.5- 5.9-
2024-04-19 09:12 pm NW 9.9 11.1----30.06- 75.2- 67.6- 5.9-
2024-04-19 09:06 pm NW 8.9 12.0----30.06- 75.2- 67.8- 5.9-
2024-04-19 09:00 pm NW 9.9 11.1----30.06+0.03 75.2- 67.8- 5.9-
2024-04-19 08:54 pm NW 8.9 11.1----30.05- 75.4- 68.0- 5.9-
2024-04-19 08:48 pm NW 9.9 11.1----30.05- 75.2- 67.6- 5.9-
2024-04-19 08:42 pm NW 9.9 11.1----30.05- 75.4- 67.8- 5.9-
2024-04-19 08:36 pm NW 9.9 11.1----30.04- 75.2- 67.5- 5.9-
2024-04-19 08:30 pm NW 9.9 11.1----30.04- 75.4- 67.8- 5.9-
2024-04-19 08:24 pm NW 8.9 11.1----30.04- 75.4- 67.8- 5.9-
2024-04-19 08:18 pm NW 9.9 12.0----30.04- 75.6- 68.2- 5.9-
2024-04-19 08:12 pm NW 8.9 11.1----30.04- 75.4- 67.5- 5.9-
2024-04-19 08:06 pm NW 9.9 12.0----30.04- 75.4- 67.6- 5.9-
2024-04-19 08:00 pm NW 11.1 12.0----30.03+0.01 75.6- 67.6- 5.9-
2024-04-19 07:54 pm NW 11.1 13.0----30.03- 75.4- 67.6- 5.9-
2024-04-19 07:48 pm NW 13.0 14.0----30.03- 75.7- 68.2- 5.9-
2024-04-19 07:42 pm NW 11.1 14.0----30.03- 75.7- 68.0- 5.9-
2024-04-19 07:36 pm NW 12.0 14.0----30.03- 75.7- 68.2- 5.9-
2024-04-19 07:30 pm NW 12.0 14.0----30.03- 75.9- 68.2- 5.9-
2024-04-19 07:24 pmWNW 12.0 15.0----30.03- 75.7- 68.4- 5.9-
2024-04-19 07:18 pm NW 13.0 14.0----30.03- 76.1- 68.7- 5.9-
2024-04-19 07:12 pm NW 13.0 14.0----30.03- 75.9- 68.2- 5.9-
2024-04-19 07:00 pm NW 14.0 15.9----30.03+0.00 76.1- 68.9- 5.9-
2024-04-19 06:54 pm NW 14.0 17.1----30.03- 76.1- 68.7- 5.9-
2024-04-19 06:48 pm NW 15.0 17.1----30.03- 76.1- 68.7- 5.9-
2024-04-19 06:42 pm NW 15.0 17.1----30.03- 76.1- 68.7- 5.9-
2024-04-19 06:36 pm NW 15.0 18.1----30.03- 75.9- 68.9- 5.9-
2024-04-19 06:30 pm NW 15.0 18.1----30.03- 76.1- 69.3- 5.9-
2024-04-19 06:24 pm NW 14.0 18.1----30.03- 75.9- 68.9- 5.9-
2024-04-19 06:18 pm NW 15.9 18.1----30.03- 76.1- 68.9- 5.9-
2024-04-19 06:12 pmWNW 15.0 19.0----30.03- 75.9- 68.4- 5.9-
2024-04-19 06:06 pmWNW 17.1 19.0----30.03- 76.1- 68.2- 5.9-
2024-04-19 06:00 pmWNW 17.1 19.0----30.03-0.01 76.1- 68.2- 5.9-
2024-04-19 05:54 pmWNW 15.9 19.0----30.03- 75.9- 67.8- 5.9-
2024-04-19 05:48 pmWNW 15.9 19.0----30.03- 76.1- 67.6- 5.9-
2024-04-19 05:42 pmWNW 15.9 19.0----30.03- 76.1- 67.5- 5.9-
2024-04-19 05:36 pmWNW 15.0 17.1----30.03- 76.1- 67.5- 5.9-
2024-04-19 05:30 pmWNW 14.0 15.9----30.03- 76.1- 67.6- 5.9-
2024-04-19 05:24 pmWNW 14.0 17.1----30.02- 75.9- 66.9- 5.9-
2024-04-19 05:18 pmWNW 15.0 17.1----30.02- 76.1- 67.6- 5.9-
2024-04-19 05:12 pmWNW 13.0 17.1----30.02- 76.3- 67.6- 5.9-
2024-04-19 05:06 pmWNW 14.0 15.0----30.02- 76.3- 67.6- 5.9-
2024-04-19 05:00 pmWNW 14.0 15.0----30.02-0.04 76.5- 68.0- 5.9-
2024-04-19 04:54 pmWNW 13.0 15.0----30.02- 76.5- 67.8- 5.9-
2024-04-19 04:48 pm W 13.0 15.0----30.02- 76.6- 67.1- 5.9-
2024-04-19 04:42 pm W 14.0 15.9----30.02- 76.6- 66.0- 5.9-
2024-04-19 04:36 pm W 13.0 15.0----30.02- 76.8- 66.2- 5.9-
2024-04-19 04:30 pm W 13.0 15.0----30.02- 76.6- 66.0- 5.9-
2024-04-19 04:24 pm W 13.0 15.0----30.02- 76.6- 66.4- 5.9-
2024-04-19 04:18 pm W 12.0 14.0----30.03- 76.8- 66.6- 5.9-
2024-04-19 04:12 pm W 13.0 14.0----30.03- 76.5- 66.2- 5.9-
2024-04-19 04:06 pm W 12.0 14.0----30.03- 76.6- 66.7- 5.9-
2024-04-19 04:00 pm W 12.0 14.0----30.03-0.05 76.6- 66.6- 5.9-
2024-04-19 03:54 pm W 11.1 13.0----30.03- 76.5- 66.6- 5.9-
2024-04-19 03:48 pm W 12.0 14.0----30.03- 76.5- 66.9- 5.9-
2024-04-19 03:42 pm W 11.1 12.0----30.03- 76.5- 67.1- 5.9-
2024-04-19 03:36 pmWNW 11.1 12.0----30.03- 76.5- 67.5- 5.9-
2024-04-19 03:30 pm W 9.9 11.1----30.04- 76.5- 68.0- 5.9-
2024-04-19 03:24 pmWNW 9.9 9.9----30.04- 76.5- 68.2- 5.9-
2024-04-19 03:18 pmWNW 8.9 9.9----30.04- 76.3- 67.8- 5.9-
2024-04-19 03:12 pmWNW 8.9 9.9----30.04- 76.1- 67.6- 5.9-
2024-04-19 03:06 pmWNW 9.9 11.1----30.04- 76.1- 67.8- 5.9-
2024-04-19 03:00 pmWNW 9.9 11.1----30.04-0.05 75.9- 67.6- 5.9-
2024-04-19 02:54 pmWNW 11.1 11.1----30.05- 75.9- 67.6- 5.9-
2024-04-19 02:48 pmWNW 9.9 12.0----30.05- 76.1- 67.8- 5.9-
2024-04-19 02:42 pmWNW 9.9 12.0----30.06- 76.3- 68.0- 5.9-
2024-04-19 02:36 pmWNW 9.9 12.0----30.06- 76.1- 67.5- 5.9-
2024-04-19 02:30 pmWNW 11.1 12.0----30.06- 76.5- 67.5- 5.9-
2024-04-19 02:24 pmWNW 8.9 11.1----30.06- 76.6- 67.5- 5.9-
2024-04-19 02:18 pmWNW 8.0 8.9----30.06- 76.5- 67.3- 5.9-
2024-04-19 02:12 pmWNW 8.0 8.9----30.06- 76.6- 68.0- 5.9-
2024-04-19 02:06 pm W 7.0 8.9----30.07- 76.1- 67.1- 5.9-
2024-04-19 02:00 pm W 8.0 8.9----30.07-0.04 75.9- 66.7- 5.9-
2024-04-19 01:54 pm W 8.0 8.0----30.07- 76.1- 66.6- 5.9-
2024-04-19 01:48 pm W 7.0 8.0----30.07- 76.3- 66.2- 5.9-
2024-04-19 01:42 pm W 7.0 8.0----30.07- 76.1- 65.3- 5.9-
2024-04-19 01:36 pm W 6.0 7.0----30.07- 76.6- 64.2- 5.9-
2024-04-19 01:30 pm W 5.1 5.1----30.07- 76.3- 62.1- 5.9-
2024-04-19 01:24 pm W 4.1 6.0----30.08- 75.7- 61.0- 5.9-
2024-04-19 01:18 pm W 6.0 6.0----30.07- 75.7- 62.1- 5.9-
2024-04-19 01:12 pm W 5.1 5.1----30.07- 75.7- 62.4- 5.9-
2024-04-19 01:06 pm W 5.1 7.0----30.08- 76.1- 63.5- 5.9-
2024-04-19 01:00 pm W 5.1 5.1----30.08-0.02 76.5- 63.7- 5.9-
2024-04-19 12:54 pm W 2.9 2.9----30.08- 76.5- 64.6- 5.9-
2024-04-19 12:48 pmWSW 2.9 4.1----30.08- 76.1- 64.8- 5.9-
2024-04-19 12:42 pmWSW 4.1 5.1----30.08- 75.9- 65.1- 5.9-
2024-04-19 12:36 pmWSW 4.1 5.1----30.08- 76.3- 65.7- 5.9-
2024-04-19 12:30 pmWSW 4.1 5.1----30.09- 76.6- 65.3- 5.9-
2024-04-19 12:24 pmWSW 4.1 4.1----30.09- 77.0- 64.9- 5.9-
2024-04-19 12:18 pm W 1.9 1.9----30.09- 76.6- 64.0- 5.9-
2024-04-19 12:12 pm W 1.9 1.9----30.09- 77.9- 64.8- 5.9-
2024-04-19 12:06 pm- 0.0 1.0----30.09- 76.8- 65.7- 5.9-
2024-04-19 12:00 pm- 0.0 1.9----30.09+0.02 75.4- 64.4- 5.9-
2024-04-19 11:54 amNNE 1.0 1.9----30.10- 75.2- 64.6- 5.9-
2024-04-19 11:48 am N 1.0 1.9----30.10- 75.0- 64.8- 5.9-
2024-04-19 11:42 amNNE 1.9 1.9----30.10- 74.8- 64.8- 5.9-
2024-04-19 11:36 am N 1.9 1.9----30.11- 74.8- 64.8- 5.9-
2024-04-19 11:30 amNNE 1.9 1.9----30.11- 74.7- 64.8- 5.9-
2024-04-19 11:24 amNNE 1.0 1.9----30.11- 74.7- 64.9- 5.9-
2024-04-19 11:18 am NE 1.0 2.9----30.11- 74.3- 64.8- 5.9-
2024-04-19 11:12 am NE 1.9 2.9----30.11- 74.3- 64.8- 5.9-
2024-04-19 11:06 am NE 2.9 2.9----30.11- 74.3- 64.9- 5.9-
2024-04-19 11:00 am NE 1.9 2.9----30.11+0.06 74.1- 64.6- 5.9-
2024-04-19 10:54 amNNE 2.9 2.9----30.11- 74.3- 64.9- 5.9-